Lampedusa, Italy

5:38 PM CEST on May 28, 2017 (GMT +0200)
Lampedusa

Weather History for LICD - October, 2012

Change the Weather History Date:

Thursday, October 18, 2012

  Actual Average Record
Temperature  
Mean Temperature 76 °F -  
Max Temperature 78 °F 71 °F 82 °F (2014)
Min Temperature 75 °F 64 °F 62 °F (2006)
Cooling Degree Days 12    
Growing Degree Days 26 (Base 50)    
Moisture  
Dew Point 73 °F    
Average Humidity 88    
Maximum Humidity 94    
Minimum Humidity 83    
Precipitation  
Precipitation 0.00 in 0.08 in - ()
Sea Level Pressure  
Sea Level Pressure 30.08 in    
Wind  
Wind Speed 10 mph ()    
Max Wind Speed 16 mph    
Max Gust Speed -    
Visibility 6.1 miles    
Events      
Averages and records for this station are not official NWS values.
T = Trace of Precipitation, MM = Missing Value Source: Averaged Metar Reports

Daily Weather History Graph

Daily Weather History Graph

Search for Another Location

Airport or City:

Trip Planner

Search our weather history database for the weather conditions in past years. The results will help you decide how hot, cold, wet, or windy it might be!

Date:

Astronomy

Oct. 18, 2012 Rise Set
Actual Time 7:18 AM CEST 6:30 PM CEST
Civil Twilight 6:52 AM CEST 6:55 PM CEST
Nautical Twilight 6:23 AM CEST 7:25 PM CEST
Astronomical Twilight 5:53 AM CEST 7:54 PM CEST
Moon 10:34 AM CEST (10/18) 8:54 PM CEST (10/18)
Length of Visible Light 12h 02m
Length of Day
11h 11m
Waxing Crescent, 12% of the Moon is Illuminated
Oct 18
Waxing Crescent
Oct 22
First Quarter
Oct 29
Full
Nov 7
Last Quarter
Nov 13
New

Hourly Weather History & Observations

Time (CEST) Temp. Dew Point Humidity Pressure Visibility Wind Dir Wind Speed Gust Speed Precip Events Conditions
12:50 AM 75.2 °F 71.6 °F 89% 30.12 in 6.2 mi East 10.4 mph - N/A   Scattered Clouds
1:50 AM 75.2 °F 69.8 °F 83% 30.12 in 6.2 mi East 10.4 mph - N/A   Partly Cloudy
2:50 AM 75.2 °F 69.8 °F 83% 30.12 in 6.2 mi East 10.4 mph - N/A   Scattered Clouds
3:50 AM 75.2 °F 71.6 °F 89% 30.09 in 6.2 mi East 10.4 mph - N/A   Partly Cloudy
5:58 AM 75.2 °F 71.6 °F 89% 30.09 in 5.6 mi ENE 10.4 mph - N/A   Partly Cloudy
6:00 AM 75.2 °F 71.6 °F 89% 30.09 in - East 8.1 mph - N/A   Clear
6:50 AM 75.2 °F 71.6 °F 89% 30.09 in 5.6 mi ENE 11.5 mph - N/A   Partly Cloudy
7:50 AM 75.2 °F 71.6 °F 89% 30.09 in 5.6 mi ENE 11.5 mph - N/A   Partly Cloudy
8:50 AM 75.2 °F 71.6 °F 89% 30.09 in 6.2 mi East 13.8 mph - N/A   Partly Cloudy
9:50 AM 75.2 °F 71.6 °F 89% 30.09 in 6.2 mi East 16.1 mph - N/A   Partly Cloudy
10:50 AM 77.0 °F 73.4 °F 89% 30.09 in 6.2 mi East 15.0 mph - N/A   Partly Cloudy
11:50 AM 77.0 °F 73.4 °F 89% 30.09 in 5.6 mi East 15.0 mph - N/A   Partly Cloudy
12:50 PM 77.0 °F 73.4 °F 89% 30.09 in 6.2 mi East 15.0 mph - N/A   Partly Cloudy
1:50 PM 77.0 °F 73.4 °F 89% 30.06 in 6.2 mi East 15.0 mph - N/A   Partly Cloudy
2:50 PM 78.8 °F 75.2 °F 89% 30.04 in 6.2 mi East 9.2 mph - N/A   Partly Cloudy
3:50 PM 78.8 °F 73.4 °F 83% 30.04 in 6.2 mi East 9.2 mph - N/A   Partly Cloudy
4:50 PM 77.0 °F 73.4 °F 89% 30.04 in 6.2 mi ENE 9.2 mph - N/A   Partly Cloudy
5:50 PM 77.0 °F 73.4 °F 89% 30.04 in - ENE 10.4 mph - N/A   Clear
6:50 PM 77.0 °F 73.4 °F 89% 30.04 in 6.2 mi East 11.5 mph - N/A   Partly Cloudy
7:50 PM 77.0 °F 73.4 °F 89% 30.04 in 6.2 mi East 11.5 mph - N/A   Partly Cloudy
8:50 PM 77.0 °F 73.4 °F 89% 30.04 in 6.2 mi East 11.5 mph - N/A   Partly Cloudy
9:50 PM 77.0 °F 75.2 °F 94% 30.06 in 5.6 mi ESE 9.2 mph - N/A   Partly Cloudy